{"data":{"norad_id":52298,"intl_designator":"2022-041AP","name":"STARLINK-3760","alt_names":[],"object_type":"PAYLOAD","status":"ACTIVE","operator":null,"country":"US","launch_date":"2022-04-21","launch_site_code":"AFETR","launch_vehicle":null,"mission":null,"orbit_class":"UNKNOWN","rcs_meters":null,"size_class":null,"mass_kg":null,"dimensions":null,"purposes":["comms"],"wikipedia_slug":null,"has_3d_model":false,"image_url":null,"decayed_at":null,"tle_current":{"epoch":"2026-09-19T16:50:45.659904Z","epoch_age_seconds":128499,"freshness":"FRESH","line1":"1 52298U 22041AP  26262.70191736  .00000039  00000+0  12289-4 0  9994","line2":"2 52298  53.1604 295.0985 0001196  79.5185 280.5952 15.34389132243972","mean_motion":15.343891320000001,"eccentricity":0.0001196,"inclination_deg":53.1604,"raan_deg":295.0985,"arg_perigee_deg":79.5185,"mean_anomaly_deg":280.5952,"bstar":1.2289e-5,"rev_number":24397,"period_min":93.848422800221,"perigee_km":461.91737402802,"apogee_km":463.55371074016,"semimajor_km":6840.8725423841,"source":"CELESTRAK","updated_at":"2026-09-20T09:00:40.017904Z"}}}